Volver al catálogo

STARLINK-30092

ActivoComunicacionesVLEO
NORAD 57467·PAYLOAD·🇺🇸 United States

Lanzado Jul 28, 2023 desde Cape Canaveral Space Force Station

Loading…

Próximos Pases (próximas 24 horas)

TLE

ActualizadoSource: CelesTrak SupGP

Época: Sep 14, 2026, 21:09 UTC

1 57467C 23107L   26257.88173611 -.00070674  00000+0 -25587-2 0  2570
2 57467  43.0040 347.8270 0001777 264.7794 305.7306 15.27627175    12

Sigue STARLINK-30092 en tiempo real con AllMySat

Download on the App Store